Location: Maiden
(35.5760°N, 81.2120°W)
Time: 03:48:36
(UTC-04:00)

Helios 1A - Pass Details

Date: 14 June 2018
Orbit: 585 x 604 km, 98.2° (Epoch: 11 June)

Event Time Altitude Azimuth Distance (km) Brightness Sun altitude
Exits shadow 22:39:09 41° 106° (ESE) 855 3.4 -19.2°
Maximum altitude 22:39:53 46° 73° (ENE) 791 3.4 -19.3°
Drops below altitude 10° 22:43:53 10° 0° (N) 1,927 6.3 -19.8°
Sets 22:46:07 0° 355° (N) 2,836 7.4 -20.1°
